Regional Weather Roundup
Issued by NWS Portland, ME

Current Version | Previous Version | Text Only | Print | Product List | Glossary Off
Versions: 1 2 3 4 5 6 7 8 9 10 11 12 13 14 15 16 17 18 19 20 21 22 23 24 25 26 27 28 29 30 31 32 33 34 35 36 37 38 39 40 41 42 43 44 45 46 47 48 49 50
065 ASUS41 KGYX 212205 RWRGYX WEATHER ROUNDUP FOR MAINE AND NEW HAMPSHIRE NATIONAL WEATHER SERVICE GRAY ME 600 PM EDT TUE MAY 21 2019 MEZ002-005-006-010-012-015-018-020-021-024-026-027-029-212300- MAINE CITY SKY/WX TMP DP RH WIND PRES REMARKS PORTLAND FAIR 58 36 43 NW23G38 29.79R SANFORD FAIR 59 36 42 W13G26 29.82R BAR HARBOR CLOUDY 56 39 53 NW8G25 29.67R WISCASSET PTSUNNY 56 37 49 W8G21 29.76R ROCKLAND LGT RAIN 54 42 64 NW7G26 29.72R FRYEBURG CLOUDY 55 37 50 W8G21 29.82R LEWISTONAUBURN PTSUNNY 56 37 49 NW15G33 29.78R AUGUSTA PTSUNNY 56 37 49 NW26G37 29.75R WATERVILLE FAIR 56 37 49 NW15G26 29.71R BANGOR PTSUNNY 52 40 63 NW16G33 29.68R GREENVILLE N/A 48 35 60 NW20G43 29.68R MILLINOCKET CLOUDY 54 38 54 NW21G31 29.68R HOULTON CLOUDY 47 41 80 N13G29 29.62R PRESQUE ISLE CLOUDY 45 38 76 NW22G30 29.67R FRENCHVILLE LGT RAIN 44 37 76 N14G25 29.68R CARIBOU LGT RAIN 45 40 82 N16G22 29.66R $$ NHZ002-005-008-009-011-012-014-212300- NEW HAMPSHIRE CITY SKY/WX TMP DP RH WIND PRES REMARKS PORTSMOUTH PTSUNNY 59 34 39 NW15 29.81R ROCHESTER CLOUDY 59 34 39 NW10G31 29.83R NASHUA PTSUNNY 64 35 34 NW22G32 29.86R MANCHESTER PTSUNNY 63 33 32 NW18G28 29.85R CONCORD PTSUNNY 59 34 39 NW17G35 29.86R LACONIA CLOUDY 57 36 45 NW18G33 29.85R PLYMOUTH CLOUDY 57 36 45 NW12G21 29.86R BERLIN LGT RAIN 49 41 74 NW8 29.82R WHITEFIELD CLOUDY 51 39 63 N12G20 29.88R JAFFREY FAIR 60 32 34 NW12G25 29.89R KEENE CLOUDY 62 35 36 N18G24 29.89R LEBANON CLOUDY 60 34 37 NW14G26 29.90R MT WASHINGTON SNOWSHWR 27 27 100 NW67G91 N/A VSB 1/16WCI 4 $$ VTZ005-007-008-212300- VERMONT CITY SKY/WX TMP DP RH WIND PRES REMARKS ST JOHNSBURY N/A 52 41 66 MISG 29.88R MONTPELIER CLOUDY 56 36 47 NW17G30 29.94R BURLINGTON PTSUNNY 60 35 39 N21G31 29.94R $$ MAZ007-012-024-CTZ003-RIZ002-NYZ038-NYZ072-212300- SOUTHERN NEW ENGLAND AND NY CITY SKY/WX TMP DP RH WIND PRES REMARKS BOSTON PTSUNNY 67 33 28 NW23G33 29.84R WORCESTER FAIR 62 34 35 W21G37 29.88R NANTUCKET FAIR 61 46 57 W18G26 29.81R PROVIDENCE PTSUNNY 68 35 29 NW17G30 29.85R HARTFORD FAIR 67 38 34 NW15G22 29.91R ALBANY FAIR 66 35 31 N20G28 29.96R NEW YORK CITY FAIR 71 33 24 NW20G31 29.93R $$ ANZ081-ANZ082-ANZ150-NHZ014-MEZ023>029-212300- COASTAL MARINE OBSERVATIONS STATION/POSITION TIME TEMP WIND PRES WAVE AIR SEA DIR/SP/G HT/PER (UTC) (F) (DEG/KT/KT) (MB) (FT/S) ISLE OF SHOALS 2100 57 310/ 28/ 33 1008.9R JEFFREYS LEDGE 2138 47 N/A 4/ 5 CASHES LEDGE BUO 2150 54 47 1007.2 4/ 6 GEORGES BANK BUO 2150 48 44 260/ 16/ 17 1008.6R 5/ 8 $$ .............KEY.............. WCI - WIND CHILL TC - TEMPERATURE IN CELSIUS VSB - VISIBILITY IN MILES HX - HEAT INDEX FAIR- INDICATES FEW OR NO CLOUDS BELOW 12,000 FT, WITH NO SIGNIFICANT WEATHER AND/OR OBSTRUCTIONS TO VISIBILITY.

USA.gov is the U.S. government's official web portal to all federal, state and local government web resources and services.